Temp
67 66 66 64 63 63 61 61 58 56 55 55 55 55 55 55 54 53 53 54 52 50 50 49 48 46 43 43 44 45 46 46 43 46 47 49 48 49 52 53 55 53 53
69 66 63 61 61 60 61 59 57 55 54 55 56 56 56 55 54 54 55 54 52 50 49 48 47 50 43 42 43 44 44 45 45 43 45 46 48 49 50 50 54 56 51
65 63 61 60 60 60 59 57 56 55 54 55 56 56 56 55 55 54 54 53 52 50 48 47 46 45 42 42 43 43 44 46 45 44 44 45 47 48 49 50 51 50 55
63 61 60 60 59 59 58 57 56 55 53 53 54 55 55 55 55 55 53 51 50 50 48 47 46 45 43 43 44 44 44 44 45 44 44 45 46 50 50 49 50 51 52
61 60 59 59 59 59 58 56 54 54 53 53 52 51 51 53 54 53 52 50 48 47 48 49 47 51 53 50 46 45 44 44 44 43 42 42 44 45 47 48 46 49 49
60 59 60 59 60 59 57 55 54 52 51 52 51 50 49 51 49 52 51 48 48 48 45 45 46 48 48 50 51 52 49 44 43 41 41 41 44 44 46 46 45 48 46
60 60 60 60 59 58 56 54 52 50 50 48 47 48 46 45 47 49 51 48 46 44 44 44 47 48 45 44 48 50 50 50 50 44 41 42 43 45 44 45 44 42 44
59 59 60 60 59 57 55 53 50 50 48 46 45 46 46 46 46 47 49 46 45 44 44 43 43 43 43 43 44 45 46 46 46 47 43 43 43 44 45 46 45 44 44
59 59 61 60 58 56 54 51 49 48 46 43 45 45 46 44 46 46 48 46 45 44 45 45 44 43 43 44 44 44 44 45 50 49 47 46 44 45 47 46 45 42 42
58 60 61 60 57 55 53 51 49 48 46 47 44 44 48 44 44 46 47 47 44 44 43 44 47 43 43 43 42 41 42 41 41 43 46 45 45 46 48 43 42 42 41
60 60 60 59 56 54 52 52 49 48 46 42 42 42 43 44 44 44 45 46 45 44 44 44 44 44 43 43 42 41 41 41 43 41 42 42 43 44 44 43 40 42 42
59 60 59 56 56 55 53 51 49 47 44 40 41 40 41 43 44 44 44 45 45 44 43 41 42 43 42 42 42 41 42 43 41 40 39 39 39 40 41 42 42 42 42
57 57 56 56 55 55 52 50 48 47 45 43 44 42 39 42 41 43 42 43 45 43 42 43 42 42 43 42 43 43 42 39 38 38 37 37 37 39 42 43 46 42 42
54 55 56 54 53 54 54 53 50 48 46 46 44 41 39 39 40 40 41 41 44 44 45 43 43 42 42 42 41 41 39 39 37 35 35 37 39 41 40 39 38 39 38
56 55 54 54 50 46 42 47 50 49 49 47 44 43 41 39 40 41 40 41 40 41 41 40 39 38 38 38 38 38 37 38 37 36 36 37 39 40 40 39 38 37 35
55 53 50 48 47 45 42 39 40 42 44 43 42 44 41 41 40 40 40 39 40 41 40 37 35 35 36 35 36 36 36 37 35 37 36 36 37 38 38 39 38 36 35
52 50 47 47 46 44 44 44 40 39 40 41 41 41 41 40 39 39 39 39 39 40 37 35 35 35 34 34 34 34 33 34 35 35 35 35 37 38 38 38 39 37 37
50 46 47 46 45 45 45 43 43 43 41 41 40 40 39 39 39 40 40 42 40 39 36 35 34 34 34 33 33 33 33 34 34 34 35 35 35 36 37 36 36 34 35
48 48 47 45 45 44 44 43 43 42 42 39 38 39 38 38 39 39 41 41 37 35 35 34 33 33 32 32 32 32 32 32 32 33 33 34 34 34 34 34 34 33 33
49 45 46 46 45 44 44 43 42 40 39 39 40 38 38 39 40 38 39 38 36 34 34 33 32 32 31 30 30 31 30 31 31 31 32 33 34 34 34 33 33 33 32
48 47 42 47 46 46 44 43 41 39 39 39 39 38 36 42 37 38 36 36 35 34 33 32 31 30 30 30 29 30 30 30 30 30 31 32 33 33 34 33 33 33 33
49 48 49 48 47 46 44 42 41 40 40 40 37 36 35 40 38 37 36 35 34 34 33 32 30 29 29 29 29 29 29 29 29 30 31 32 33 34 34 33 33 32 32
50 49 50 49 49 42 44 43 43 41 41 40 39 39 39 38 37 36 37 35 33 32 31 30 29 28 28 29 29 28 28 28 28 29 31 32 33 32 33 32 33 32 31
51 51 51 50 48 47 46 44 43 41 43 42 41 41 39 39 38 37 35 34 33 32 31 30 29 29 29 29 29 28 28 28 29 30 32 33 33 33 32 32 32 33 31
51 51 50 49 49 48 46 46 45 45 45 44 44 42 40 39 37 37 35 34 33 31 30 29 29 30 31 31 30 30 30 31 32 31 32 34 34 34 32 32 32 32 32
50 51 51 50 50 49 48 47 46 45 45 45 45 43 41 40 39 37 35 34 32 31 30 29 30 31 31 30 30 30 30 31 32 32 32 33 33 32 32 33 34 32 32
MSLP
1005.00 1005.95 1006.88 1008.13 1008.97 1010.07 1010.96 1012.13 1013.26 1013.73 1014.29 1015.36 1015.87 1016.56 1016.68 1016.86 1016.85 1017.39 1017.65 1018.60 1018.71 1019.20 1019.45 1019.43 1019.31 1019.50 1019.71 1019.53 1019.43 1019.51 1019.54 1019.74 1019.47 1018.97 1018.45 1017.35 1016.55 1015.73 1014.96 1014.50 1013.97 1013.45 1012.98
1004.49 1005.65 1007.24 1008.35 1009.13 1010.27 1011.62 1012.49 1013.22 1014.02 1014.67 1015.50 1015.90 1016.67 1017.05 1016.93 1017.10 1017.67 1018.28 1018.98 1018.90 1019.84 1020.14 1019.50 1019.71 1019.75 1019.64 1019.77 1019.87 1019.91 1019.77 1019.85 1019.79 1019.29 1018.52 1017.92 1016.88 1015.85 1015.33 1014.74 1014.05 1013.45 1013.04
1005.20 1006.42 1007.52 1008.53 1009.33 1010.61 1011.95 1012.76 1013.20 1014.10 1014.95 1015.77 1016.04 1016.67 1017.29 1017.08 1017.46 1018.10 1018.69 1019.32 1019.36 1020.07 1020.49 1019.84 1019.84 1019.84 1020.03 1020.03 1020.07 1020.26 1019.90 1019.73 1019.57 1019.44 1019.07 1018.18 1017.09 1016.05 1015.60 1014.93 1014.19 1013.50 1012.91
1006.47 1007.29 1007.20 1008.81 1009.52 1010.31 1011.49 1012.70 1013.42 1014.31 1015.35 1016.20 1016.39 1017.02 1017.47 1017.31 1017.68 1018.47 1019.09 1019.41 1019.65 1020.17 1020.79 1020.19 1019.87 1019.93 1020.05 1020.19 1020.10 1020.18 1019.99 1019.81 1019.49 1019.33 1019.13 1018.51 1017.72 1016.41 1015.73 1015.41 1014.62 1013.76 1013.07
1005.53 1007.01 1007.69 1008.80 1009.62 1010.69 1011.92 1013.31 1013.35 1014.83 1015.63 1016.58 1016.83 1017.40 1017.81 1017.84 1018.12 1018.53 1019.46 1019.73 1019.84 1020.25 1021.09 1020.39 1020.25 1020.21 1019.96 1020.10 1019.99 1020.17 1019.93 1019.78 1019.67 1019.41 1019.27 1018.84 1018.00 1017.17 1016.48 1015.84 1015.29 1014.46 1013.39
1005.57 1006.78 1008.28 1009.26 1010.14 1010.84 1012.41 1013.13 1014.36 1014.87 1015.96 1017.04 1017.14 1017.84 1018.05 1018.25 1018.64 1018.82 1019.63 1019.91 1020.22 1020.39 1020.98 1020.45 1020.45 1020.50 1020.18 1020.08 1019.80 1019.94 1019.82 1019.65 1019.73 1019.81 1019.53 1019.24 1018.31 1017.55 1016.80 1016.24 1015.67 1015.15 1014.19
1005.25 1007.19 1008.31 1009.37 1010.68 1011.47 1012.47 1013.27 1014.26 1015.34 1016.47 1016.97 1017.88 1018.31 1018.53 1018.90 1019.16 1019.37 1019.84 1020.19 1020.22 1020.79 1020.79 1020.65 1020.64 1020.74 1020.46 1020.21 1020.11 1019.85 1019.45 1019.53 1019.48 1019.48 1019.47 1019.13 1018.54 1017.89 1017.53 1016.63 1016.17 1015.73 1015.17
1006.07 1007.54 1008.46 1009.73 1010.80 1011.70 1012.12 1013.34 1014.91 1015.87 1016.57 1017.29 1018.07 1018.61 1018.55 1019.25 1019.52 1019.53 1019.86 1020.45 1020.51 1020.58 1020.87 1021.03 1021.12 1020.98 1020.71 1020.56 1020.64 1020.39 1019.99 1019.81 1019.57 1019.27 1019.15 1018.87 1018.43 1017.91 1017.45 1016.89 1016.62 1016.05 1015.08
1005.97 1007.16 1008.11 1009.34 1010.66 1011.85 1012.39 1013.85 1015.11 1015.93 1016.95 1017.11 1017.97 1018.84 1019.11 1019.54 1019.53 1019.69 1020.09 1020.37 1020.81 1020.78 1021.04 1021.31 1021.49 1021.31 1020.98 1020.79 1020.86 1020.97 1020.47 1019.85 1019.37 1019.12 1018.83 1018.40 1017.96 1017.66 1017.26 1016.80 1016.85 1016.58 1015.92
1004.87 1006.77 1007.94 1008.47 1009.80 1012.31 1013.01 1014.12 1015.15 1016.13 1017.05 1017.47 1018.42 1019.37 1019.20 1019.28 1019.48 1019.73 1020.19 1020.44 1020.96 1021.00 1021.30 1021.66 1021.70 1021.67 1021.32 1021.09 1021.15 1021.15 1020.75 1020.93 1020.28 1019.37 1018.94 1018.66 1018.50 1017.97 1017.51 1017.46 1017.30 1017.02 1016.61
1005.49 1007.03 1007.81 1008.02 1010.64 1012.31 1013.38 1014.30 1015.14 1016.25 1017.38 1018.39 1018.93 1019.70 1019.53 1019.15 1019.80 1019.78 1020.01 1020.46 1020.71 1021.14 1021.83 1021.96 1022.06 1021.83 1021.68 1021.58 1021.65 1021.40 1021.38 1021.14 1020.70 1020.27 1019.75 1019.47 1019.25 1018.81 1018.19 1017.67 1017.43 1017.15 1016.80
1006.40 1007.13 1008.41 1008.94 1011.12 1012.27 1013.25 1014.42 1015.37 1016.51 1017.68 1018.61 1019.48 1020.35 1019.97 1019.71 1019.85 1020.01 1020.14 1020.49 1020.89 1021.34 1022.07 1022.19 1022.25 1022.37 1022.19 1022.25 1022.13 1021.76 1021.41 1021.12 1020.76 1020.88 1020.57 1020.55 1020.50 1019.85 1018.89 1018.25 1017.67 1017.25 1016.92
1007.49 1008.00 1009.60 1009.88 1011.41 1012.46 1013.28 1014.29 1015.75 1016.55 1017.76 1018.87 1019.69 1020.14 1020.29 1020.34 1020.07 1020.10 1020.47 1020.78 1021.04 1021.60 1021.95 1022.39 1022.46 1022.56 1022.47 1022.66 1022.75 1022.25 1021.91 1021.89 1021.83 1021.61 1021.68 1021.42 1021.01 1020.39 1019.12 1018.33 1017.61 1017.33 1017.06
1006.38 1008.70 1010.13 1009.81 1011.74 1012.75 1013.61 1013.99 1015.48 1016.56 1017.78 1018.73 1019.50 1019.75 1020.16 1020.43 1020.44 1020.73 1021.07 1021.20 1021.54 1021.91 1022.35 1022.57 1022.79 1022.89 1023.22 1023.47 1023.35 1023.06 1023.00 1022.64 1022.57 1022.39 1022.16 1021.47 1020.79 1020.23 1019.84 1019.49 1019.11 1018.59 1018.11
1006.91 1008.89 1009.53 1010.61 1012.16 1013.39 1014.43 1014.90 1015.86 1016.61 1017.16 1018.09 1018.68 1019.28 1019.60 1020.09 1020.81 1020.71 1021.31 1021.65 1021.97 1022.35 1022.86 1023.29 1023.74 1023.68 1024.13 1024.30 1024.00 1023.81 1023.66 1023.29 1023.11 1022.75 1022.29 1022.13 1021.75 1021.21 1020.89 1020.23 1019.83 1019.61 1019.43
1007.77 1009.57 1010.40 1011.28 1012.36 1013.56 1014.75 1016.20 1016.60 1016.79 1017.34 1018.13 1018.58 1018.59 1019.08 1019.72 1020.39 1020.93 1021.61 1021.85 1022.38 1022.42 1023.45 1024.32 1024.50 1024.67 1024.87 1025.07 1024.81 1024.77 1024.39 1024.13 1023.87 1023.14 1022.91 1022.89 1022.57 1021.91 1021.23 1020.62 1020.35 1020.24 1019.97
1008.86 1009.43 1009.97 1011.42 1012.86 1014.19 1015.39 1016.38 1017.25 1018.18 1018.20 1018.36 1018.69 1018.74 1019.33 1020.12 1020.89 1021.18 1021.46 1022.13 1022.63 1023.08 1024.01 1024.98 1025.22 1025.23 1025.36 1025.45 1025.45 1025.38 1025.46 1024.75 1024.31 1023.90 1023.61 1023.22 1022.92 1022.51 1022.25 1021.74 1021.29 1020.76 1020.45
1008.73 1009.61 1010.78 1012.27 1013.30 1014.53 1015.57 1016.31 1017.26 1018.14 1018.63 1019.26 1019.42 1019.26 1020.02 1020.77 1021.24 1021.43 1021.75 1022.37 1023.47 1024.27 1024.76 1025.64 1025.83 1025.93 1026.11 1025.89 1025.95 1025.85 1025.97 1025.53 1024.68 1024.40 1024.12 1023.83 1023.53 1023.31 1023.05 1022.60 1022.39 1022.43 1021.70
1008.82 1010.70 1011.65 1012.77 1013.76 1014.71 1015.73 1016.63 1017.08 1017.61 1018.57 1019.49 1020.17 1020.41 1020.94 1021.64 1021.50 1021.99 1022.24 1022.91 1024.14 1024.89 1025.53 1025.98 1026.15 1026.29 1026.27 1026.45 1026.45 1026.33 1026.26 1025.91 1025.75 1025.25 1024.97 1024.73 1024.29 1023.97 1023.78 1023.50 1022.93 1022.74 1022.41
1009.63 1011.22 1012.25 1013.29 1014.22 1015.16 1015.80 1016.28 1017.19 1018.03 1018.78 1019.50 1020.09 1020.52 1021.31 1021.55 1022.03 1022.78 1022.93 1023.60 1024.68 1025.40 1025.87 1026.16 1026.46 1026.37 1026.64 1026.73 1026.75 1026.86 1026.74 1026.39 1026.02 1025.73 1025.42 1025.32 1025.08 1024.65 1024.51 1024.20 1023.82 1023.28 1023.19
1010.76 1011.95 1012.56 1013.46 1014.19 1014.83 1015.89 1016.62 1017.53 1018.28 1018.99 1019.98 1020.62 1020.96 1021.07 1021.28 1022.38 1023.05 1023.71 1024.54 1025.05 1025.53 1026.00 1026.42 1026.72 1026.81 1026.95 1027.18 1027.03 1027.14 1026.86 1026.29 1026.37 1026.28 1025.85 1025.69 1025.35 1025.01 1024.81 1024.28 1024.09 1024.09 1023.78
1010.84 1011.89 1012.66 1013.32 1014.29 1015.41 1016.04 1017.09 1017.46 1018.57 1019.40 1020.13 1021.16 1021.45 1021.34 1021.57 1022.32 1023.48 1024.23 1024.98 1025.51 1025.74 1026.05 1026.41 1026.86 1027.17 1027.23 1027.41 1027.40 1027.51 1027.20 1026.93 1026.68 1026.63 1026.32 1026.13 1025.74 1025.38 1025.06 1024.90 1024.69 1024.42 1024.51
1011.14 1011.65 1012.58 1013.50 1014.33 1015.27 1016.27 1017.14 1017.86 1018.77 1019.66 1020.48 1020.82 1021.58 1021.94 1022.45 1023.05 1023.54 1024.53 1025.30 1025.82 1026.19 1026.48 1026.63 1027.18 1027.58 1027.60 1027.62 1027.59 1027.84 1027.18 1027.01 1026.96 1026.85 1026.69 1026.55 1026.31 1026.11 1025.79 1025.45 1025.34 1025.25 1024.95
1011.24 1011.99 1013.04 1013.82 1014.71 1015.33 1016.17 1017.19 1018.09 1018.83 1019.48 1020.01 1020.60 1021.36 1022.07 1022.93 1023.37 1024.13 1024.87 1025.38 1025.93 1026.54 1026.85 1027.02 1027.40 1027.40 1027.50 1027.52 1027.83 1027.68 1027.26 1027.26 1026.90 1026.77 1026.69 1026.74 1026.62 1026.23 1025.98 1025.97 1025.74 1025.67 1025.64
1011.69 1012.64 1013.09 1013.68 1014.44 1015.44 1016.46 1017.26 1017.90 1018.49 1019.24 1019.65 1020.51 1021.45 1022.08 1022.90 1023.85 1024.37 1025.10 1025.69 1026.18 1026.85 1027.37 1027.57 1027.68 1027.80 1027.65 1027.70 1027.83 1027.43 1026.91 1027.10 1027.01 1026.77 1026.80 1026.91 1026.67 1026.69 1026.50 1026.29 1026.10 1026.02 1026.09
1011.65 1012.27 1012.95 1013.58 1014.53 1015.21 1016.13 1016.89 1017.75 1018.37 1018.98 1019.63 1020.51 1021.23 1022.01 1022.77 1023.69 1024.43 1025.02 1025.84 1026.67 1027.16 1027.47 1027.72 1027.87 1027.88 1027.85 1027.97 1027.97 1027.57 1027.31 1027.18 1027.18 1027.02 1027.07 1027.13 1027.09 1027.01 1026.78 1026.79 1026.73 1026.57 1026.36
Wind_Speed
16 15 14 12 13 11 11 11 10 9 9 7 7 6 6 6 7 6 7 6 8 6 4 5 6 4 4 4 4 3 3 1 1 3 2 4 4 5 7 8 8 6 6
13 15 14 14 14 13 12 11 11 10 7 7 7 7 6 7 7 7 7 5 8 6 4 6 6 3 6 5 3 3 2 2 1 3 3 3 4 4 5 6 6 6 5
15 16 15 14 14 15 13 11 11 10 7 6 7 7 6 7 7 7 7 5 7 6 4 6 5 6 5 3 3 4 3 2 1 1 4 3 4 3 4 4 6 5 5
16 16 17 15 15 16 14 12 11 9 7 6 6 7 5 7 8 8 7 7 7 5 4 5 5 6 4 4 3 3 3 2 2 2 3 4 3 5 3 5 7 5 7
18 16 15 14 13 14 13 11 11 9 8 7 8 6 6 6 5 9 7 6 7 6 3 4 6 7 8 3 1 3 2 2 2 2 3 3 3 4 4 4 3 6 5
18 17 14 14 14 15 12 13 11 11 8 8 8 7 7 4 8 12 8 6 6 6 4 6 5 8 7 8 8 5 2 2 3 2 3 3 5 3 4 4 3 6 6
17 16 15 14 14 14 13 13 12 11 9 9 7 7 7 6 7 11 11 6 6 5 5 5 5 4 6 6 8 7 8 7 2 2 2 3 4 3 5 5 5 3 3
17 17 16 15 14 13 14 13 10 9 10 9 7 6 7 4 7 11 12 7 6 6 6 5 4 4 6 6 6 6 7 5 6 4 3 5 4 6 3 3 3 6 4
20 19 18 17 14 13 15 13 10 10 8 6 6 6 6 5 8 13 10 6 6 6 5 4 3 5 7 6 7 6 6 6 5 4 2 4 8 10 8 4 5 5 4
21 19 18 18 17 13 13 13 8 8 8 8 7 4 6 6 9 13 9 5 6 4 4 4 5 5 5 7 6 4 7 5 7 8 9 8 8 8 10 5 3 2 3
17 19 17 18 15 13 12 11 11 10 9 7 8 4 5 6 7 11 10 5 5 5 3 3 4 6 9 9 6 5 2 4 5 4 5 5 6 7 6 6 5 2 3
14 16 14 18 14 12 15 11 12 12 11 7 7 4 3 5 7 8 9 9 6 6 2 1 2 9 11 10 6 7 9 5 4 5 4 5 5 5 6 6 6 5 2
11 14 14 17 14 13 15 13 11 11 9 7 6 6 4 3 4 12 11 10 8 4 3 5 8 10 9 7 12 12 9 5 5 5 5 4 3 5 6 7 8 5 4
17 15 13 17 14 12 10 10 10 9 9 7 7 6 5 4 4 4 4 5 8 7 7 6 7 8 8 5 5 7 5 4 4 2 3 3 4 5 5 4 4 6 4
16 14 13 12 11 9 7 6 9 6 9 9 6 7 8 5 3 6 5 5 5 6 6 4 4 5 5 4 4 5 5 5 6 4 5 5 5 5 5 4 4 4 4
16 12 11 11 10 8 9 7 16 6 11 9 10 8 4 10 11 8 8 9 9 9 6 4 3 3 4 2 4 4 4 6 5 4 4 4 4 4 4 4 3 3 4
13 14 11 11 9 9 8 8 7 9 15 10 13 13 11 10 8 11 15 14 10 7 5 3 3 3 3 3 4 4 3 4 4 4 4 4 4 4 5 5 5 4 4
13 16 11 9 9 8 7 7 7 7 6 4 8 8 13 9 10 14 16 11 7 6 4 3 4 3 2 3 3 3 3 4 4 4 4 4 5 4 4 4 5 5 5
13 9 10 9 8 9 8 7 7 8 8 7 5 7 7 6 11 11 9 7 6 4 4 4 3 3 3 3 3 4 3 3 3 4 4 5 5 4 4 5 5 6 5
12 16 11 9 9 8 7 8 7 7 7 7 6 5 5 4 4 3 5 5 5 5 4 5 3 4 4 3 4 4 3 4 4 4 4 4 4 4 4 5 5 4 4
10 9 12 9 8 8 7 7 6 6 6 5 4 3 6 8 6 5 5 4 5 5 5 4 4 4 4 4 4 3 2 4 4 4 4 4 4 4 4 4 5 5 5
9 9 8 9 9 8 7 6 7 6 6 7 4 3 7 7 7 6 5 5 4 4 4 5 4 4 4 4 3 2 2 4 4 4 4 4 4 4 4 4 4 5 5
8 8 8 8 8 9 8 7 7 7 7 6 6 6 4 6 6 6 7 5 5 5 4 5 5 4 3 3 3 0 3 3 1 2 3 4 4 4 4 4 4 5 5
10 10 9 9 8 8 8 8 7 8 8 7 7 7 6 6 6 7 6 6 5 5 4 4 4 5 4 4 2 1 3 1 1 1 2 3 3 4 4 4 5 6 4
10 9 9 9 9 8 8 8 8 8 7 8 7 8 7 7 7 7 6 5 5 5 5 4 4 5 6 6 4 4 4 2 0 1 3 3 5 6 4 3 4 4 6
9 10 9 9 9 9 8 8 8 8 9 8 8 8 9 8 8 8 7 7 6 5 6 4 5 6 6 4 4 5 5 5 6 6 4 4 5 4 4 5 5 4 5
Wind_Direction
159 149 142 135 129 128 125 128 138 130 127 130 136 141 124 119 103 100 103 100 92 92 72 78 65 52 35 31 35 26 24 0 120 301 268 288 298 331 335 340 345 335 328
146 135 136 139 132 129 137 140 141 130 126 138 134 127 129 118 114 116 108 112 104 92 82 71 48 26 42 35 34 16 15 314 221 279 281 295 279 314 304 319 332 330 320
145 142 143 137 136 137 139 144 132 132 132 137 125 131 138 131 116 101 108 106 104 102 78 71 56 47 39 25 13 351 331 330 297 293 300 285 280 298 314 302 329 322 322
151 151 139 152 150 145 142 140 135 122 121 120 117 116 125 116 111 110 106 106 107 102 85 69 56 54 51 12 5 333 338 340 329 338 296 292 293 298 321 330 340 338 331
140 143 145 142 139 132 133 139 116 119 117 117 106 97 97 105 120 117 118 122 118 110 71 61 50 44 44 4 3 326 302 357 341 348 309 307 306 316 329 331 319 319 306
140 140 141 140 138 134 136 125 127 115 112 123 110 120 110 91 108 120 127 117 113 101 87 50 42 35 22 12 10 354 260 12 352 332 303 300 297 285 305 312 315 340 333
133 136 138 137 140 137 132 126 123 125 128 114 111 118 107 92 100 121 119 113 106 102 83 70 50 22 21 16 2 21 29 23 22 232 288 273 297 312 306 325 326 315 299
138 139 139 139 138 136 128 123 123 129 131 131 122 126 116 110 136 124 117 118 101 98 96 84 67 19 20 21 9 27 22 13 7 354 257 279 268 292 285 280 279 300 299
143 145 143 141 138 137 131 136 134 129 133 117 129 135 131 126 152 133 121 115 103 90 81 64 36 27 2 18 45 32 21 13 335 336 297 7 18 18 19 10 354 2 337
149 150 153 143 133 149 139 135 125 123 116 110 104 128 136 130 156 141 130 125 105 101 54 35 27 35 46 42 60 53 52 343 348 355 8 7 360 3 10 32 324 353 329
143 153 151 131 135 139 131 126 122 117 110 104 103 101 103 114 127 127 124 117 128 106 89 51 9 39 59 47 47 51 22 301 351 19 15 13 0 353 355 353 1 7 354
147 143 141 125 136 137 130 128 120 122 119 109 110 95 70 87 92 116 114 109 109 105 112 89 71 72 59 42 38 34 37 39 39 25 28 10 354 336 331 338 354 5 7
163 126 146 125 132 139 135 131 127 125 130 134 139 136 109 74 68 84 88 93 98 97 103 107 100 67 49 35 25 30 33 30 24 38 14 356 303 291 332 358 1 1 9
135 143 158 128 139 137 139 130 134 139 143 146 152 134 131 108 92 87 85 87 93 84 77 73 77 77 58 37 23 23 17 25 34 20 345 312 308 2 3 348 356 347 10
137 146 138 128 128 118 83 107 140 149 157 159 155 153 143 130 165 126 130 119 115 114 97 59 45 49 49 30 24 26 9 15 23 355 20 7 357 6 354 341 2 347 34
138 143 140 131 126 121 111 87 39 75 130 124 125 140 89 114 125 130 132 122 118 123 67 82 74 70 77 50 42 22 17 16 353 7 21 11 1 2 359 349 355 10 12
146 140 115 115 122 126 124 130 115 49 68 94 120 106 92 123 130 127 118 97 86 84 92 93 98 100 102 72 59 43 11 343 316 26 19 10 353 357 0 359 360 355 6
118 103 112 119 116 116 126 121 129 137 121 101 39 102 108 124 133 121 111 90 72 43 83 113 105 101 77 73 59 50 8 353 18 18 14 9 6 7 1 3 12 352 2
115 118 116 113 112 118 116 113 118 120 122 120 105 63 83 104 109 100 77 111 119 112 108 97 106 101 86 73 64 55 37 24 7 11 10 8 8 18 18 3 11 18 16
113 125 121 125 124 120 123 120 111 112 118 127 131 135 140 127 110 98 93 106 110 112 121 121 113 97 88 88 77 60 41 28 26 24 22 12 4 17 26 17 13 24 10
126 128 128 124 126 123 125 121 122 122 118 129 138 133 149 128 124 124 118 116 126 127 128 114 99 91 89 87 87 73 63 66 39 17 26 10 4 30 351 27 31 21 20
116 125 130 129 127 130 128 131 125 126 133 135 130 105 115 110 117 117 112 116 117 112 113 119 105 107 101 102 96 97 84 65 43 22 27 15 15 30 27 31 25 33 23
133 123 119 128 131 126 127 135 135 138 141 140 125 128 120 121 119 115 123 121 118 111 112 106 114 104 85 82 72 316 98 83 35 345 18 21 25 30 27 44 24 25 31
142 143 153 140 140 136 133 142 142 142 143 135 136 141 135 137 126 126 124 121 110 108 108 112 118 124 113 85 28 3 61 0 270 323 28 52 43 39 55 49 41 33 29
147 152 149 141 141 143 142 151 154 147 143 143 144 148 139 127 131 129 120 113 112 108 106 111 103 100 90 83 65 52 34 11 24 43 66 70 65 50 53 59 56 44 34
142 149 147 146 151 148 150 149 153 150 149 148 152 151 148 143 136 132 129 122 121 122 124 117 116 109 96 73 49 40 34 39 45 42 61 64 69 59 60 56 48 47 43